トンボー-テナグラ彗星

274P/Tombaugh-Tenagra (2022)

English version
Home page
Updated on September 9, 2021

---------------------------------------------------------------------

・ プロフィール

・ 軌道要素

Epoch 2021 July 5.0 TT = JDT 2459400.5                                          
T 2022 Apr. 8.53842 TT                                  Rudenko                 
q   2.4530915            (2000.0)            P               Q                  
n   0.10778038     Peri.   38.48650     -0.47407622     -0.83823644             
a   4.3729673      Node    81.33978     +0.72521954     -0.54529325             
e   0.4390327      Incl.   15.81742     +0.49930788     -0.00386665             
P   9.14                                                                        
From 649 observations 1931 Jan. 13-2021 Aug. 19, mean residual 0".7.            

・ 光度変化

        m1 = 12.0 + 5 logΔ + 10.0 log r

---------------------------------------------------------------------

軌道要素はM.P.E.C. 2021-R75に掲載されたものです。
光度グラフはComet for Windowsで作成したものです。

---------------------------------------------------------------------

Copyright(C) Seiichi Yoshida (comet@aerith.net). All rights reserved.